Temp
72 73 77 76 77 78 76 78 78 81 81 83 84 84 83 82 80 79 75 82 82 82 83 84 84 83 83 83 83 83 83 82 82 81 81 81 80 80 80 80 79 77 77
76 78 78 77 76 77 81 82 79 80 81 83 84 85 86 83 82 80 77 78 82 82 83 83 84 83 83 83 83 83 82 82 81 81 81 80 80 80 80 80 78 78 77
78 75 70 70 71 73 75 77 81 81 80 84 83 83 83 85 84 83 82 80 76 82 83 83 83 83 83 83 83 83 82 81 81 81 80 80 80 80 80 79 79 78 77
75 74 69 68 69 70 72 72 75 79 79 80 80 80 81 83 84 85 84 83 82 86 81 83 83 83 83 84 84 83 82 81 81 81 80 80 80 79 79 79 78 78 77
75 71 70 68 67 68 70 71 74 78 78 79 80 80 79 77 78 79 74 74 78 79 75 80 82 82 84 85 84 83 82 81 81 81 80 80 79 79 79 78 78 78 78
76 72 69 69 68 68 70 71 71 75 76 75 83 79 74 72 74 72 74 75 72 71 76 77 79 80 83 84 84 82 82 81 81 80 80 79 79 78 78 78 77 77 77
75 72 69 68 68 69 71 70 70 71 69 72 70 70 70 72 70 71 73 71 74 74 75 77 79 79 80 82 82 82 82 81 81 80 80 80 79 78 78 77 77 77 77
73 71 69 67 70 71 70 70 71 69 68 69 65 64 61 67 68 71 70 77 74 72 76 83 83 81 79 76 78 80 79 79 80 80 80 80 79 78 77 77 76 76 76
76 73 71 69 70 67 66 67 72 70 66 66 68 64 60 61 62 67 69 70 69 70 74 78 76 83 76 74 77 77 77 76 79 80 80 80 80 79 78 77 76 76 76
79 73 72 71 71 70 69 69 73 69 68 65 67 69 68 65 61 61 67 68 72 75 76 72 79 80 77 73 78 76 75 75 76 79 80 81 80 80 79 78 77 76 76
83 83 75 72 71 71 73 76 76 75 73 65 66 66 67 68 69 67 67 67 69 73 77 71 82 77 76 73 72 74 74 73 74 75 76 78 80 81 80 79 78 77 77
78 80 81 80 78 77 77 77 78 77 76 73 69 71 69 67 67 70 72 69 73 74 78 77 79 78 74 73 77 75 73 72 72 72 73 74 75 77 79 81 80 79 78
78 81 80 77 77 78 78 77 77 76 76 74 74 73 74 74 74 74 74 71 71 77 74 77 77 77 78 74 73 73 71 70 69 69 70 70 71 71 73 75 77 81 80
75 74 75 75 77 78 78 78 76 76 76 74 75 74 75 75 75 75 79 76 71 70 72 75 77 74 75 74 74 72 69 69 68 67 67 67 68 69 70 71 73 76 79
74 74 75 74 75 77 79 77 76 75 75 74 75 75 75 75 75 76 75 77 71 67 71 76 72 74 74 72 74 69 67 68 67 67 66 66 66 67 68 69 72 74 76
74 73 76 73 75 76 77 77 75 74 75 74 77 75 76 76 76 75 76 76 74 73 69 72 72 74 76 75 73 67 68 68 67 66 65 64 65 65 66 66 67 68 69
72 73 74 75 76 77 78 76 76 76 75 75 76 75 74 75 76 75 75 74 74 75 70 71 73 75 74 74 71 68 69 65 65 65 65 64 63 63 64 63 64 64 66
74 74 75 76 77 77 77 76 76 77 75 75 75 74 75 78 75 75 73 72 73 72 71 70 72 72 74 73 71 68 74 71 65 65 64 63 63 62 62 61 61 61 61
76 77 77 75 75 76 76 76 76 76 76 76 76 75 75 75 74 74 73 72 73 74 72 71 70 73 74 75 72 70 67 64 69 66 64 64 63 62 61 60 59 58 57
76 76 77 76 76 76 76 77 77 76 76 76 76 76 76 75 74 74 75 74 74 73 72 71 70 71 71 71 70 68 65 66 63 72 68 64 65 64 62 61 60 59 57
78 77 76 77 77 77 80 76 76 76 75 75 76 76 76 75 73 73 73 73 72 71 70 69 69 69 69 68 68 68 69 68 66 65 64 62 62 61 59 62 63 61 58
77 76 76 75 75 80 68 71 71 73 74 75 73 74 75 76 74 70 70 70 71 70 70 69 68 67 68 67 66 67 67 67 67 65 62 63 65 59 57 56 62 60 59
73 72 73 73 73 72 67 68 70 71 72 72 72 72 74 74 67 69 70 67 67 69 70 68 68 67 67 67 68 67 68 68 67 68 65 62 62 57 60 59 61 60 58
72 72 72 73 72 66 65 66 66 69 69 70 65 65 67 63 60 63 67 69 68 65 64 69 66 63 62 62 65 68 67 68 69 68 67 60 62 60 60 59 61 60 59
70 67 64 64 67 61 60 61 64 68 68 63 60 59 62 61 59 62 66 67 64 62 63 63 63 62 62 62 63 67 60 63 64 63 60 64 62 59 59 58 58 60 58
63 62 60 60 60 59 56 57 61 67 67 63 61 58 58 57 56 58 62 63 63 63 66 64 64 63 64 63 63 64 63 61 60 59 59 61 62 63 60 60 58 57 56
MSLP
1019.17 1019.44 1019.47 1019.37 1019.07 1018.82 1018.80 1018.61 1018.44 1017.97 1017.64 1017.32 1017.29 1017.39 1017.38 1017.65 1017.77 1017.72 1017.89 1017.75 1017.67 1017.67 1017.71 1017.81 1017.83 1017.84 1017.85 1017.83 1017.64 1017.45 1017.53 1017.44 1017.30 1017.14 1016.96 1016.90 1016.72 1016.66 1016.43 1016.47 1016.50 1016.45 1016.38
1019.06 1019.04 1019.13 1019.26 1019.08 1018.52 1018.24 1018.07 1018.10 1018.05 1017.89 1017.49 1017.22 1017.01 1016.99 1017.69 1017.89 1017.89 1017.73 1017.61 1017.75 1017.75 1017.61 1017.46 1017.48 1017.55 1017.62 1017.56 1017.47 1017.45 1017.63 1017.53 1017.47 1017.28 1016.98 1016.94 1016.82 1016.79 1016.60 1016.68 1016.63 1016.65 1016.66
1018.74 1019.36 1019.96 1019.96 1020.10 1019.09 1018.87 1018.46 1018.19 1017.88 1017.79 1017.42 1017.47 1017.30 1017.32 1017.30 1017.80 1017.99 1018.04 1017.87 1017.74 1017.31 1017.25 1017.29 1017.25 1017.39 1017.36 1017.35 1017.43 1017.48 1017.56 1017.50 1017.55 1017.45 1017.13 1017.04 1016.91 1016.91 1016.77 1016.91 1016.82 1016.86 1016.93
1018.98 1019.51 1019.92 1020.18 1020.15 1020.05 1019.18 1019.03 1018.92 1018.55 1018.17 1017.72 1017.62 1017.71 1017.63 1017.62 1017.80 1017.62 1017.79 1017.81 1016.86 1016.40 1016.80 1016.67 1016.93 1017.10 1017.23 1017.31 1017.37 1017.45 1017.50 1017.46 1017.43 1017.48 1017.24 1017.09 1016.98 1017.03 1016.99 1016.99 1017.08 1017.15 1017.21
1019.28 1019.37 1019.32 1019.87 1020.18 1020.07 1019.31 1019.71 1019.38 1019.00 1018.55 1018.14 1018.12 1018.54 1019.23 1019.67 1019.29 1019.26 1019.29 1017.83 1017.64 1018.80 1016.92 1016.21 1016.52 1016.86 1016.97 1017.15 1017.41 1017.54 1017.48 1017.36 1017.33 1017.45 1017.38 1017.14 1017.03 1017.05 1017.24 1017.27 1017.31 1017.48 1017.64
1019.26 1018.94 1018.94 1020.00 1019.92 1020.13 1019.90 1019.70 1020.01 1020.26 1019.53 1019.08 1019.00 1018.95 1019.20 1019.72 1019.32 1019.25 1018.84 1016.66 1017.33 1016.14 1019.06 1018.22 1016.70 1016.49 1016.73 1016.99 1017.25 1017.39 1017.47 1017.42 1017.22 1017.23 1017.37 1017.23 1017.15 1017.16 1017.33 1017.52 1017.60 1017.72 1017.89
1019.31 1018.99 1019.54 1020.10 1020.23 1020.35 1019.64 1020.06 1020.61 1021.67 1020.05 1019.82 1019.56 1019.62 1019.30 1019.26 1019.24 1018.63 1018.71 1017.14 1017.51 1019.07 1018.39 1016.91 1016.94 1016.40 1016.91 1017.20 1017.55 1017.57 1017.43 1017.47 1017.26 1017.07 1017.25 1017.37 1017.39 1017.40 1017.53 1017.68 1017.77 1017.84 1018.02
1019.70 1019.55 1019.87 1020.10 1019.80 1020.09 1020.99 1020.64 1021.05 1021.56 1021.51 1020.29 1020.53 1021.12 1020.75 1019.36 1019.29 1018.50 1018.22 1017.07 1016.80 1017.84 1017.70 1017.19 1017.00 1017.50 1017.62 1018.10 1018.02 1017.95 1017.60 1017.54 1017.30 1017.07 1017.14 1017.24 1017.38 1017.52 1017.63 1017.78 1017.81 1017.87 1018.04
1018.92 1019.32 1019.68 1019.59 1019.40 1020.74 1021.26 1021.37 1020.06 1021.57 1021.60 1020.89 1019.87 1020.61 1022.05 1022.74 1022.19 1019.37 1018.84 1018.44 1018.78 1018.04 1017.26 1018.00 1017.40 1017.22 1016.97 1017.95 1017.88 1017.98 1017.73 1017.56 1017.34 1017.15 1017.11 1017.08 1017.33 1017.46 1017.61 1017.78 1018.07 1018.20 1018.27
1019.16 1019.56 1019.29 1019.24 1019.41 1019.72 1020.19 1020.42 1020.90 1021.37 1020.79 1020.76 1019.59 1020.97 1022.17 1022.78 1022.96 1022.10 1019.83 1019.58 1018.28 1017.53 1017.92 1018.27 1016.95 1017.26 1017.28 1017.62 1017.44 1017.46 1017.65 1017.76 1017.46 1017.28 1017.33 1017.29 1017.27 1017.46 1017.54 1017.67 1017.86 1018.18 1018.36
1018.30 1018.78 1019.36 1019.27 1019.74 1020.05 1019.89 1020.17 1019.81 1020.01 1019.99 1020.36 1020.38 1021.30 1021.83 1022.51 1022.10 1021.94 1020.31 1019.86 1019.43 1018.16 1018.10 1017.90 1016.71 1017.36 1017.50 1017.98 1017.66 1017.68 1017.84 1017.64 1017.69 1017.40 1017.42 1017.28 1017.20 1017.29 1017.39 1017.53 1017.60 1017.84 1018.11
1018.62 1018.48 1018.53 1018.61 1018.80 1019.15 1019.44 1019.49 1019.52 1019.73 1019.87 1019.89 1020.41 1020.82 1021.13 1021.44 1020.93 1020.30 1019.58 1019.43 1018.87 1017.92 1017.88 1017.48 1017.25 1017.21 1017.45 1018.00 1017.77 1018.07 1018.18 1017.98 1017.69 1017.71 1017.83 1017.70 1017.52 1017.35 1017.19 1017.07 1017.28 1017.60 1017.96
1018.71 1018.50 1018.67 1019.18 1019.18 1019.09 1019.02 1019.28 1019.42 1019.55 1019.54 1019.62 1019.77 1019.67 1019.27 1019.37 1019.17 1018.88 1018.79 1018.68 1018.48 1018.07 1018.22 1018.01 1017.50 1017.39 1017.32 1017.58 1018.31 1018.50 1018.32 1018.58 1017.96 1017.98 1018.06 1017.96 1017.81 1017.70 1017.52 1017.21 1017.03 1017.17 1017.54
1018.65 1018.61 1018.84 1019.17 1019.30 1019.22 1019.29 1019.23 1019.45 1019.29 1019.50 1019.60 1019.53 1019.30 1019.09 1018.84 1019.02 1018.75 1018.83 1018.87 1018.69 1018.46 1018.19 1018.41 1018.02 1017.85 1017.65 1017.97 1018.44 1019.18 1018.75 1018.50 1018.33 1018.44 1018.55 1018.47 1018.35 1018.03 1017.71 1017.28 1016.98 1017.06 1017.15
1018.38 1018.62 1018.88 1019.18 1019.21 1019.30 1019.03 1019.02 1019.57 1019.46 1019.59 1019.52 1019.37 1019.29 1018.97 1018.76 1018.93 1018.70 1018.61 1018.62 1018.77 1018.90 1018.50 1018.28 1018.49 1018.34 1018.34 1018.24 1018.57 1019.44 1018.87 1018.54 1018.75 1018.65 1018.77 1018.67 1018.62 1018.26 1017.95 1017.55 1017.08 1017.27 1017.34
1017.84 1018.08 1018.30 1018.90 1018.87 1018.75 1018.91 1019.06 1019.46 1019.59 1019.46 1019.34 1019.27 1019.15 1018.90 1018.61 1018.56 1018.58 1018.44 1018.54 1018.50 1018.47 1018.53 1018.20 1018.12 1018.04 1017.73 1018.34 1018.82 1019.02 1018.66 1018.71 1018.94 1018.88 1018.87 1018.82 1018.73 1018.55 1018.32 1017.97 1017.77 1017.74 1017.86
1017.72 1017.79 1018.31 1018.58 1018.66 1018.66 1018.78 1019.02 1019.26 1019.31 1019.37 1019.20 1018.94 1018.87 1018.85 1018.63 1018.41 1018.48 1018.41 1018.30 1018.32 1018.17 1018.45 1018.24 1017.90 1017.98 1017.91 1018.14 1018.84 1019.18 1019.11 1019.17 1019.16 1019.22 1019.23 1019.10 1018.83 1018.74 1018.65 1018.53 1018.37 1018.33 1018.36
1017.47 1017.49 1017.98 1018.24 1018.50 1018.51 1018.62 1018.77 1018.85 1018.89 1018.79 1018.68 1018.54 1018.51 1018.54 1018.41 1018.40 1018.23 1018.29 1018.46 1018.28 1018.16 1018.42 1018.29 1017.99 1018.11 1017.89 1018.04 1018.84 1019.30 1018.94 1019.55 1019.76 1019.73 1019.71 1019.41 1019.21 1019.10 1018.93 1018.96 1019.07 1018.99 1018.86
1017.01 1017.25 1017.56 1017.84 1017.88 1018.07 1018.21 1018.19 1018.22 1018.21 1018.15 1018.09 1018.06 1018.17 1018.31 1018.29 1018.20 1017.99 1017.86 1017.87 1017.93 1017.98 1018.13 1018.18 1018.03 1017.65 1017.75 1017.68 1018.76 1018.93 1019.33 1020.44 1020.33 1020.23 1019.62 1020.08 1019.92 1019.67 1019.54 1019.46 1019.46 1019.47 1019.43
1016.49 1016.67 1016.81 1017.05 1017.19 1017.35 1017.46 1017.51 1017.59 1017.60 1017.59 1017.62 1017.70 1017.81 1017.80 1017.79 1017.77 1017.62 1017.45 1017.35 1017.45 1017.72 1017.93 1018.11 1017.97 1017.89 1017.97 1018.04 1018.02 1018.88 1019.86 1019.82 1020.93 1019.98 1019.96 1020.25 1020.20 1019.99 1019.89 1019.92 1020.03 1020.02 1019.91
1015.86 1016.10 1016.30 1016.47 1016.56 1016.70 1016.93 1017.19 1017.30 1017.25 1017.28 1017.44 1017.47 1017.53 1017.46 1017.40 1017.36 1017.30 1017.32 1017.31 1017.42 1017.61 1017.75 1017.91 1018.06 1018.04 1018.10 1018.22 1018.27 1018.57 1019.01 1019.27 1019.70 1019.62 1020.17 1020.52 1020.39 1020.46 1020.43 1020.24 1020.25 1020.36 1020.53
1015.48 1015.80 1016.08 1016.31 1016.56 1016.63 1016.81 1017.13 1017.35 1017.27 1017.30 1017.29 1017.39 1017.33 1017.43 1017.47 1017.32 1017.14 1017.18 1017.19 1017.30 1017.45 1017.58 1017.79 1017.90 1018.01 1017.99 1017.98 1018.04 1018.30 1018.65 1018.77 1019.03 1018.94 1019.51 1020.10 1020.27 1020.79 1020.83 1020.63 1020.44 1020.78 1021.03
1015.72 1016.12 1016.34 1016.58 1016.75 1016.93 1017.02 1017.21 1017.42 1017.48 1017.38 1017.18 1017.28 1017.40 1017.44 1017.79 1017.81 1017.62 1017.39 1017.41 1017.25 1017.32 1017.45 1017.63 1017.87 1018.23 1018.14 1018.30 1018.26 1018.00 1017.92 1017.86 1017.83 1017.97 1018.64 1019.85 1020.42 1020.96 1021.00 1020.84 1020.78 1020.95 1021.16
1015.73 1016.14 1016.32 1016.54 1016.75 1017.40 1017.36 1017.53 1017.32 1017.38 1017.42 1017.57 1017.86 1017.84 1017.81 1018.23 1018.06 1017.76 1017.48 1017.47 1017.80 1017.84 1017.82 1017.76 1017.90 1018.48 1018.60 1018.31 1017.99 1017.80 1017.87 1017.66 1017.55 1018.13 1018.30 1019.42 1020.13 1020.62 1020.87 1020.97 1021.02 1021.17 1021.44
1015.83 1016.49 1016.91 1017.02 1017.10 1017.68 1017.68 1017.47 1017.26 1017.44 1017.63 1018.12 1018.30 1018.23 1018.23 1018.49 1018.19 1017.81 1017.76 1017.72 1018.18 1018.45 1018.21 1018.34 1018.43 1018.59 1018.71 1018.43 1017.97 1017.59 1018.06 1018.06 1018.30 1019.02 1019.38 1019.22 1019.78 1020.50 1020.88 1021.20 1021.43 1021.56 1021.80
1016.38 1017.05 1017.64 1017.70 1017.79 1017.89 1017.74 1017.46 1017.42 1017.64 1017.84 1018.18 1018.60 1018.72 1018.77 1018.94 1018.66 1018.40 1018.31 1018.26 1018.66 1018.80 1018.65 1018.65 1018.98 1018.82 1018.90 1018.96 1018.75 1018.88 1018.91 1018.87 1018.97 1019.55 1019.93 1019.57 1019.73 1019.98 1020.77 1021.12 1021.53 1021.62 1021.76
Wind_Speed
2 1 6 4 5 4 4 4 5 5 4 4 3 6 6 6 6 4 4 15 14 13 12 9 8 7 5 4 4 3 6 7 8 8 6 7 8 8 7 9 9 10 10
4 2 1 3 3 3 3 5 5 4 4 4 5 2 5 6 5 5 4 5 12 11 11 10 9 6 4 3 3 1 5 6 6 7 5 5 7 8 9 9 10 10 10
4 9 5 5 5 6 4 6 7 1 2 2 1 3 3 2 4 4 4 4 6 14 13 10 8 5 3 4 4 1 5 7 6 6 5 6 7 8 9 10 11 10 10
9 7 4 4 5 1 6 6 6 6 3 3 3 3 3 3 3 3 3 6 5 6 9 12 8 6 4 4 4 2 4 5 5 5 6 6 6 7 8 8 10 9 7
8 7 5 5 5 5 7 7 8 7 3 3 3 4 8 9 7 7 9 13 15 15 4 11 10 8 5 4 1 3 3 3 5 5 5 6 6 5 6 7 9 10 10
4 5 5 3 4 3 6 3 7 9 7 8 4 5 3 3 1 2 5 7 14 16 18 12 4 5 8 6 3 4 3 4 4 4 2 6 7 7 6 6 7 8 8
11 7 3 3 4 6 5 7 10 8 10 7 2 4 3 2 2 2 4 4 6 7 6 8 6 3 3 5 3 5 5 4 4 3 2 4 7 8 6 6 6 7 7
12 10 7 4 2 1 3 5 5 2 3 4 3 1 6 6 5 5 5 5 9 3 6 9 9 8 7 3 5 9 8 8 4 3 2 3 6 8 9 8 7 7 7
13 10 5 2 5 2 4 5 5 4 4 2 3 6 4 5 6 5 6 9 9 8 8 7 10 2 9 1 5 6 11 10 8 6 2 2 5 6 9 10 8 7 7
11 9 6 5 4 1 1 1 6 6 4 2 1 7 4 8 4 6 4 4 5 9 8 6 7 4 7 5 9 11 10 9 10 12 7 3 1 5 6 8 10 10 9
3 11 11 8 5 4 5 3 2 1 3 2 2 2 4 5 7 6 1 4 5 9 6 2 3 5 4 4 4 8 8 9 10 11 9 7 5 2 6 7 8 11 11
1 1 2 5 3 3 1 2 2 3 1 4 4 5 5 5 5 5 2 2 4 4 3 3 7 6 4 2 8 10 7 9 11 11 10 10 9 6 4 5 9 9 10
1 4 4 3 1 2 2 3 2 2 2 1 2 3 2 1 1 2 0 2 1 2 3 3 1 2 5 5 5 9 11 8 12 11 11 11 10 9 8 6 3 9 10
3 4 5 5 5 4 4 2 3 3 2 3 6 4 3 3 2 1 3 2 4 2 1 5 2 3 4 4 6 4 6 11 12 11 12 13 13 12 11 8 5 4 7
5 4 1 4 4 4 5 3 2 3 3 4 4 4 3 2 1 2 2 2 2 3 2 2 1 2 1 1 7 4 3 12 11 12 11 12 12 13 14 16 11 3 5
5 6 3 4 4 4 6 2 2 1 2 1 2 2 3 2 2 1 2 2 2 3 0 1 1 5 5 4 10 5 7 11 11 11 11 13 12 14 15 15 16 16 15
6 4 5 6 5 3 4 4 3 4 4 4 3 3 5 5 4 0 1 2 3 2 2 3 3 4 2 4 6 3 5 4 5 10 11 14 15 15 15 16 16 16 15
7 7 7 7 5 3 3 4 6 5 4 4 4 3 5 3 2 2 2 1 2 2 1 2 2 0 2 6 7 6 6 6 3 9 11 14 16 16 16 16 16 16 15
6 6 5 6 6 6 6 5 6 6 6 4 4 4 4 4 3 2 2 2 1 2 2 1 3 1 2 1 4 5 6 3 4 10 13 12 15 16 16 15 15 14 13
7 7 7 7 8 7 7 6 6 6 6 5 3 3 3 3 4 4 4 4 2 1 1 0 2 2 2 2 3 6 4 1 3 5 7 4 9 16 15 13 14 14 12
7 8 7 6 6 6 4 5 6 5 4 5 3 3 3 1 4 4 2 4 3 2 2 2 2 1 1 1 2 2 4 7 7 3 4 4 2 3 5 10 13 12 12
6 5 4 3 4 3 8 2 4 4 2 1 2 4 4 6 6 4 4 2 3 2 2 1 2 2 2 2 2 3 3 3 3 5 5 3 3 2 3 3 12 11 11
2 3 4 5 6 1 1 2 3 2 3 4 2 3 4 7 8 6 5 4 1 6 5 1 1 3 2 3 2 3 4 4 4 4 4 4 3 2 2 4 10 10 10
1 1 2 2 2 5 5 4 3 3 3 5 6 5 5 6 6 5 5 5 5 5 6 5 6 5 4 4 1 1 1 3 2 6 4 4 3 3 3 2 8 9 8
5 6 6 7 6 7 9 7 5 4 5 6 6 7 6 5 9 8 5 4 6 4 5 7 12 14 14 15 12 3 5 4 2 4 7 2 3 3 2 2 1 5 6
7 6 6 6 8 5 9 7 6 3 1 5 5 6 14 8 11 11 8 7 7 3 3 5 6 9 9 10 15 9 5 4 2 3 5 3 3 2 3 3 3 3 2
Wind_Direction
268 268 228 232 230 239 219 249 242 271 270 307 124 162 136 156 160 162 182 199 208 216 224 228 236 242 253 273 297 331 24 22 37 31 41 34 29 43 41 47 77 80 76
189 197 329 304 301 243 218 232 222 242 283 286 13 90 108 135 161 191 203 211 223 230 228 228 236 247 256 258 243 248 28 24 39 39 51 45 33 54 52 57 86 78 77
34 51 57 22 347 23 15 6 349 353 237 248 237 83 138 112 164 170 217 209 233 234 231 231 230 246 240 216 202 163 40 30 38 41 52 61 42 63 59 59 80 80 82
75 67 55 5 354 330 19 8 341 330 260 188 203 240 157 168 180 283 324 339 254 222 223 215 211 214 198 183 176 95 56 40 39 50 64 83 59 72 72 70 81 90 87
104 97 32 359 6 333 21 7 338 300 225 241 230 14 29 44 35 36 41 8 353 348 243 214 182 201 169 166 171 33 77 65 48 47 70 104 96 97 87 84 88 93 102
81 78 87 328 6 318 0 358 343 341 45 23 74 94 102 77 14 90 90 34 1 340 296 346 201 179 171 179 148 96 104 64 57 43 75 110 123 130 117 105 97 99 108
103 102 279 212 91 81 303 3 344 305 27 4 349 354 330 150 327 349 165 146 187 238 244 216 229 155 159 186 115 94 65 41 40 41 43 108 128 136 137 136 128 121 121
145 153 209 98 101 131 64 18 323 28 11 1 110 60 358 331 7 346 318 303 12 353 299 315 50 64 49 3 75 47 37 7 17 41 44 132 129 137 151 158 162 153 146
140 163 174 151 149 125 199 119 51 313 231 255 124 133 33 359 323 342 325 13 4 315 315 304 118 218 108 104 86 46 37 22 30 49 71 97 136 148 150 163 171 173 169
137 183 169 195 201 283 294 170 195 213 169 261 331 64 82 70 273 309 337 2 284 288 318 303 157 128 127 194 117 90 61 31 46 56 47 37 102 159 168 164 172 178 183
171 155 180 190 196 205 226 230 10 79 111 127 112 41 87 194 249 264 290 288 307 282 293 295 169 102 85 6 71 64 72 71 50 53 54 53 45 210 189 189 183 184 189
169 319 169 147 135 113 75 44 17 31 10 141 185 207 189 187 209 222 221 189 219 281 246 345 97 139 127 68 94 101 64 58 64 53 47 35 34 26 20 218 203 200 195
133 225 139 144 175 208 229 230 228 264 274 236 277 288 293 286 300 283 51 296 61 324 74 26 76 176 135 124 85 72 79 58 60 47 48 45 35 26 13 342 305 209 203
136 97 89 66 285 211 221 247 249 268 160 178 270 278 289 295 315 320 348 324 337 340 310 150 310 1 79 92 101 121 98 83 71 54 46 42 32 27 23 3 289 236 209
155 138 220 244 251 277 238 213 257 268 187 238 255 278 272 297 302 358 67 8 132 321 288 121 132 7 189 193 146 167 125 83 74 69 62 57 46 39 36 32 43 63 48
180 170 155 232 249 223 228 176 231 218 21 305 242 308 306 284 309 42 19 19 99 206 34 125 268 192 216 118 136 143 98 93 88 85 82 78 65 54 53 56 53 55 55
192 182 202 221 219 211 235 190 227 261 231 236 282 316 306 291 286 284 4 12 27 11 83 309 170 226 276 149 123 126 106 94 96 98 89 84 78 69 61 59 61 61 60
192 180 206 186 195 213 215 225 216 228 238 252 254 277 293 296 304 284 103 72 59 5 110 262 244 152 220 150 149 166 126 100 86 97 93 90 83 77 75 70 66 64 64
188 209 209 185 203 211 220 232 217 219 227 235 241 226 268 296 268 276 290 306 208 168 180 164 280 81 236 57 142 100 65 39 95 112 98 86 85 80 75 74 73 71 69
190 205 204 195 200 204 212 233 239 221 225 237 212 217 246 265 262 258 259 265 264 251 150 209 297 300 49 356 92 131 118 181 243 181 103 111 105 93 86 81 75 74 74
188 199 211 224 211 193 203 240 256 238 230 254 256 279 267 166 173 218 231 265 251 236 207 218 247 268 176 138 212 197 169 184 201 170 133 182 153 98 80 79 84 84 83
201 193 202 221 254 204 135 150 358 355 330 193 260 303 316 316 325 273 260 255 252 246 261 194 235 233 226 169 181 197 225 173 200 165 148 183 144 102 112 95 109 100 92
34 343 301 283 264 244 160 1 337 335 337 310 359 28 18 45 28 0 334 305 292 83 76 121 300 13 348 33 270 248 239 193 218 175 144 132 117 128 154 126 119 115 113
41 353 302 315 307 66 70 40 3 38 1 33 60 52 60 44 18 355 345 5 77 54 35 63 88 68 45 338 288 230 261 265 278 60 7 138 160 153 148 144 150 135 130
48 51 34 35 53 54 32 30 34 43 58 86 69 48 61 53 3 22 42 25 102 69 68 77 100 94 55 39 24 48 17 38 350 54 17 17 151 110 127 136 146 167 161
80 77 66 50 57 60 27 42 52 49 64 103 77 77 60 55 36 35 61 57 77 40 132 92 85 65 57 48 45 47 17 41 21 78 343 72 32 97 152 140 144 135 171